TimePDT,TemperatureF,Dew PointF,Humidity,Sea Level PressureIn,VisibilityMPH,Wind Direction,Wind SpeedMPH,Gust SpeedMPH,PrecipitationIn,Events,Conditions,WindDirDegrees,DateUTC
12:53 AM,37.9,23.0,55,30.29,10.0,Calm,Calm,-,N/A,,Clear,0,2013-05-03 07:53:00
1:53 AM,36.0,25.0,64,30.27,10.0,Calm,Calm,-,N/A,,Clear,0,2013-05-03 08:53:00
2:53 AM,35.1,26.1,70,30.27,10.0,Calm,Calm,-,N/A,,Clear,0,2013-05-03 09:53:00
3:53 AM,32.0,24.1,73,30.27,10.0,Calm,Calm,-,N/A,,Clear,0,2013-05-03 10:53:00
4:53 AM,36.0,26.1,67,30.25,10.0,Calm,Calm,-,N/A,,Clear,0,2013-05-03 11:53:00
5:53 AM,35.1,26.1,70,30.25,10.0,NNW,3.5,-,N/A,,Mostly Cloudy,340,2013-05-03 12:53:00
6:53 AM,39.9,28.0,63,30.27,10.0,SSW,3.5,-,N/A,,Clear,200,2013-05-03 13:53:00
7:53 AM,50.0,28.0,43,30.25,10.0,WNW,8.1,-,N/A,,Clear,290,2013-05-03 14:53:00
8:53 AM,59.0,28.0,31,30.23,10.0,NW,11.5,-,N/A,,Clear,310,2013-05-03 15:53:00
9:53 AM,63.0,26.1,25,30.21,10.0,NW,17.3,-,N/A,,Clear,310,2013-05-03 16:53:00
10:53 AM,64.9,27.0,24,30.21,10.0,NNW,23.0,28.8,N/A,,Clear,330,2013-05-03 17:53:00
11:53 AM,66.0,28.0,24,30.20,10.0,NNW,17.3,28.8,N/A,,Clear,330,2013-05-03 18:53:00
12:53 PM,66.9,28.9,24,30.20,10.0,NNW,19.6,28.8,N/A,,Clear,330,2013-05-03 19:53:00
1:53 PM,68.0,30.9,25,30.19,10.0,NNW,19.6,33.4,N/A,,Clear,330,2013-05-03 20:53:00
2:53 PM,66.9,30.9,26,30.18,10.0,NNW,17.3,29.9,N/A,,Clear,330,2013-05-03 21:53:00
3:53 PM,66.0,30.9,27,30.17,10.0,NW,23.0,34.5,N/A,,Clear,310,2013-05-03 22:53:00
4:53 PM,66.0,30.9,27,30.16,10.0,NW,21.9,28.8,N/A,,Clear,320,2013-05-03 23:53:00
5:53 PM,64.0,30.9,29,30.17,10.0,NW,23.0,31.1,N/A,,Clear,320,2013-05-04 00:53:00
6:53 PM,61.0,30.9,32,30.16,10.0,NW,18.4,26.5,N/A,,Clear,310,2013-05-04 01:53:00
7:53 PM,55.9,33.1,42,30.16,10.0,WNW,15.0,-,N/A,,Clear,300,2013-05-04 02:53:00
8:53 PM,50.0,34.0,54,30.16,10.0,NW,8.1,-,N/A,,Clear,320,2013-05-04 03:53:00
9:53 PM,48.0,35.1,61,30.16,10.0,NW,12.7,-,N/A,,Clear,320,2013-05-04 04:53:00
10:53 PM,46.9,35.1,63,30.15,10.0,WNW,12.7,-,N/A,,Clear,300,2013-05-04 05:53:00
11:53 PM,46.0,35.1,66,30.14,10.0,WNW,12.7,-,N/A,,Clear,300,2013-05-04 06:53:00